Scottsboro, AL

8:09 AM CDT on August 23, 2017 (GMT -0500)
Scottsboro

Weather History for K4A6 - March, 2013

Change the Weather History Date:

Thursday, March 28, 2013

  Actual Average (KHSV) Record (KHSV)
Temperature  
Mean Temperature 47 °F -  
Max Temperature 62 °F 69 °F 87 °F (1910)
Min Temperature 32 °F 44 °F 25 °F (1926)
Degree Days  
Heating Degree Days 18    
Moisture  
Dew Point 30 °F    
Average Humidity 62    
Maximum Humidity 100    
Minimum Humidity 26    
Precipitation  
Precipitation 0.00 in - - ()
Sea Level Pressure  
Sea Level Pressure 30.32 in    
Wind  
Wind Speed 1 mph (North)    
Max Wind Speed 12 mph    
Max Gust Speed 16 mph    
Averages and records for this station are not official NWS values.
T = Trace of Precipitation, MM = Missing Value Source: NWS Daily Summary

Daily Weather History Graph

Daily Weather History Graph

Search for Another Location

Airport or City:

Trip Planner

Search our weather history database for the weather conditions in past years. The results will help you decide how hot, cold, wet, or windy it might be!

Date:

Astronomy

Mar. 28, 2013 Rise Set
Actual Time 6:36 AM CDT 7:02 PM CDT
Civil Twilight 6:10 AM CDT 7:27 PM CDT
Nautical Twilight 5:41 AM CDT 7:57 PM CDT
Astronomical Twilight 5:11 AM CDT 8:27 PM CDT
Moon 8:47 PM CDT (3/28) 7:08 AM CDT (3/28)
Length of Visible Light 13h 16m
Length of Day
12h 26m
Full, 98% of the Moon is Illuminated
Mar 28
Full
Apr 2
Last Quarter
Apr 10
New
Apr 18
First Quarter
Apr 25
Full

Hourly Weather History & Observations

Time (CDT) Temp. Windchill Dew Point Humidity Pressure Visibility Wind Dir Wind Speed Gust Speed Precip Events Conditions
12:15 AM 33.8 °F - 30.2 °F 87% 30.31 in - Calm Calm - N/A   Unknown
12:35 AM 33.8 °F - 30.2 °F 87% 30.30 in - Calm Calm - N/A   Unknown
12:55 AM 33.8 °F - 30.2 °F 87% 30.31 in - Calm Calm - N/A   Unknown
1:15 AM 32.0 °F - 30.2 °F 93% 30.31 in - Calm Calm - N/A   Unknown
1:35 AM 32.0 °F - 28.4 °F 87% 30.31 in - Calm Calm - N/A   Unknown
1:55 AM 32.0 °F - 30.2 °F 93% 30.31 in - Calm Calm - N/A   Unknown
2:15 AM 32.0 °F - 28.4 °F 87% 30.31 in - Calm Calm - N/A   Unknown
2:35 AM 32.0 °F - 28.4 °F 87% 30.31 in - Calm Calm - N/A   Unknown
2:55 AM 32.0 °F - 28.4 °F 87% 30.31 in - Calm Calm - N/A   Unknown
3:15 AM 32.0 °F - 28.4 °F 87% 30.31 in - Calm Calm - N/A   Unknown
3:35 AM 32.0 °F - 28.4 °F 87% 30.31 in - Calm Calm - N/A   Unknown
3:55 AM 32.0 °F 28.7 °F 28.4 °F 87% 30.32 in - ENE 3.5 mph - N/A   Unknown
4:15 AM 32.0 °F - 28.4 °F 87% 30.32 in - Calm Calm - N/A   Unknown
4:35 AM 32.0 °F - 28.4 °F 87% 30.32 in - Calm Calm - N/A   Unknown
4:55 AM 32.0 °F - 28.4 °F 87% 30.33 in - Calm Calm - N/A   Unknown
5:15 AM 32.0 °F - 28.4 °F 87% 30.33 in - Calm Calm - N/A   Unknown
5:35 AM 32.0 °F - 30.2 °F 93% 30.34 in - Calm Calm - N/A   Unknown
5:55 AM 32.0 °F - 30.2 °F 93% 30.34 in - Calm Calm - N/A   Unknown
6:15 AM 32.0 °F - 30.2 °F 93% 30.35 in - Calm Calm - N/A   Unknown
6:35 AM 33.8 °F - 30.2 °F 87% 30.35 in - Calm Calm - N/A   Overcast
6:55 AM 33.8 °F - 30.2 °F 87% 30.36 in - Calm Calm - N/A   Overcast
7:15 AM 32.0 °F - 32.0 °F 100% 30.36 in - Calm Calm - N/A   Mostly Cloudy
7:35 AM 35.6 °F - 32.0 °F 87% - - Calm Calm - N/A   Unknown
7:55 AM 35.6 °F - 30.2 °F 81% 30.37 in - Calm Calm - N/A   Clear
8:15 AM 35.6 °F - 30.2 °F 81% 30.37 in - Calm Calm - N/A   Clear
8:35 AM 37.4 °F - 32.0 °F 81% 30.38 in - Calm Calm - N/A   Clear
8:55 AM 39.2 °F - 30.2 °F 70% 30.38 in - Calm Calm - N/A   Clear
9:15 AM 41.0 °F - 32.0 °F 70% 30.39 in - Calm Calm - N/A   Partly Cloudy
9:35 AM 42.8 °F - 32.0 °F 66% 30.39 in - Calm Calm - N/A   Mostly Cloudy
9:55 AM 44.6 °F - 30.2 °F 57% 30.39 in - Calm Calm - N/A   Overcast
10:15 AM 46.4 °F - 30.2 °F 53% 30.39 in - Calm Calm - N/A   Overcast
10:35 AM 48.2 °F - 28.4 °F 46% 30.39 in - ENE 4.6 mph - N/A   Overcast
10:55 AM 48.2 °F - 28.4 °F 46% 30.38 in - Calm Calm - N/A   Overcast
11:15 AM 50.0 °F - 26.6 °F 40% 30.38 in - Calm Calm - N/A   Mostly Cloudy
11:35 AM 50.0 °F - 26.6 °F 40% 30.38 in - Calm Calm - N/A   Clear
11:55 AM 51.8 °F - 28.4 °F 41% 30.38 in - Calm Calm - N/A   Clear
12:15 PM 53.6 °F - 28.4 °F 38% 30.36 in - SSW 6.9 mph - N/A   Clear
12:35 PM 53.6 °F - 28.4 °F 38% 30.36 in - Calm Calm - N/A   Clear
12:55 PM 55.4 °F - 28.4 °F 36% 30.35 in - Calm Calm - N/A   Clear
1:15 PM 55.4 °F - 28.4 °F 36% 30.34 in - South 5.8 mph - N/A   Clear
1:35 PM 55.4 °F - 28.4 °F 36% 30.33 in - Calm Calm - N/A   Clear
1:55 PM 57.2 °F - 28.4 °F 33% 30.32 in - SSE 4.6 mph - N/A   Clear
2:15 PM 57.2 °F - 28.4 °F 33% 30.31 in - SSE 5.8 mph - N/A   Clear
2:35 PM 59.0 °F - 28.4 °F 31% 30.30 in - North 11.5 mph 16.1 mph N/A   Partly Cloudy
2:55 PM 60.8 °F - 28.4 °F 29% 30.29 in - North 8.1 mph - N/A   Mostly Cloudy
3:15 PM 60.8 °F - 28.4 °F 29% 30.28 in - North 10.4 mph - N/A   Scattered Clouds
3:35 PM 62.6 °F - 26.6 °F 26% 30.27 in - NNW 11.5 mph - N/A   Clear
3:55 PM 60.8 °F - 26.6 °F 27% 30.27 in - North 9.2 mph - N/A   Clear
4:15 PM 62.6 °F - 28.4 °F 27% 30.27 in - North 11.5 mph - N/A   Clear
4:35 PM 62.6 °F - 28.4 °F 27% 30.26 in - NW 9.2 mph - N/A   Clear
4:55 PM 60.8 °F - 28.4 °F 29% 30.26 in - North 6.9 mph - N/A   Clear
5:15 PM 60.8 °F - 28.4 °F 29% 30.26 in - North 6.9 mph - N/A   Clear
5:35 PM 60.8 °F - 28.4 °F 29% 30.26 in - North 9.2 mph - N/A   Clear
5:55 PM 59.0 °F - 28.4 °F 31% 30.27 in - North 6.9 mph - N/A   Clear
6:15 PM 59.0 °F - 30.2 °F 34% 30.27 in - North 6.9 mph - N/A   Clear
6:35 PM 59.0 °F - 30.2 °F 34% 30.27 in - North 6.9 mph - N/A   Clear
6:55 PM 57.2 °F - 32.0 °F 38% 30.28 in - North 4.6 mph - N/A   Clear
7:15 PM 55.4 °F - 32.0 °F 41% 30.28 in - North 3.5 mph - N/A   Clear
7:35 PM 53.6 °F - 33.8 °F 47% 30.29 in - Calm Calm - N/A   Partly Cloudy
7:55 PM 50.0 °F - 33.8 °F 54% 30.29 in - Calm Calm - N/A   Partly Cloudy
8:15 PM 48.2 °F - 35.6 °F 62% 30.29 in - Calm Calm - N/A   Scattered Clouds
8:35 PM 48.2 °F - 35.6 °F 62% 30.30 in - Calm Calm - N/A   Scattered Clouds
8:55 PM 46.4 °F - 35.6 °F 66% 30.30 in - Calm Calm - N/A   Scattered Clouds
9:15 PM 46.4 °F - 35.6 °F 66% 30.31 in - Calm Calm - N/A   Scattered Clouds
9:35 PM 44.6 °F - 35.6 °F 71% 30.32 in - Calm Calm - N/A   Scattered Clouds
9:55 PM 44.6 °F - 35.6 °F 71% 30.31 in - Calm Calm - N/A   Mostly Cloudy
10:15 PM 44.6 °F - 35.6 °F 71% 30.32 in - Calm Calm - N/A   Scattered Clouds
10:35 PM 42.8 °F - 35.6 °F 76% 30.32 in - Calm Calm - N/A   Partly Cloudy
10:55 PM 41.0 °F - 33.8 °F 76% 30.32 in - Calm Calm - N/A   Partly Cloudy
11:15 PM 41.0 °F - 33.8 °F 76% 30.32 in - Calm Calm - N/A   Partly Cloudy
11:35 PM 39.2 °F - 33.8 °F 81% 30.32 in - Calm Calm - N/A   Clear
11:55 PM 39.2 °F - 33.8 °F 81% 30.32 in - Calm Calm - N/A   Clear